Weather in Parcheg

Russia / Komi Republic     61°55′44″N   50°46′44″E
temp.,
°C
wind,
m/s
gust,
m/s
humid.,
%
clouds,
%
prec.,
mm/h
press.,
hPa
HPBL,
m
3 march, wed
wed300:00−6wnw389597 0.0 992330
03:00−7wnw399598 0.1 994409
06:00−7w4119496 0.1 992529
09:00−5wnw5109298 0.5 993751
12:00−4wnw5989100 0.1 993804
15:00−4w5991100 0.3 993780
18:00−6w41094100 0.1 993601
21:00−7w41093100 0.4 993510
4 march, thu
thu400:00−9w389699 0.1 991300
03:00−10wsw2597100 0.4 991167
06:00−11wsw2497100 0.2 99090
09:00−10w1395100 0.3 990219
12:00−6wnw1288100 0.1 990404
15:00−6nw1290100 0.2 990347
18:00−10nnw129797 0.1 99121
21:00−13n379698 0.3 993232
5 march, fri
fri500:00−18nnw239794 0.0 99473
03:00−20nw239888 0.1 99554
06:00−21wnw239975 0.0 99739
09:00−18wnw239680 0.0 998191
12:00−13wnw239199 0.0 999401
15:00−12wnw2490100 0.1 1002572
18:00−14w2497100 0.1 1003103
21:00−15wnw239799 0.3 100597
6 march, sat
sat600:00−17nw229889 0.1 100538
03:00−17wnw229887 0.1 100645
06:00−18wnw239896 0.1 1006103
09:00−16wnw239498 0.3 1006303
12:00−15wnw2389100 0.1 1007596
15:00−15w3489100 0.3 1007664
18:00−17w249799 0.1 1007125
21:00−21wnw229995 0.1 100724
7 march, sun
sun700:00−24w129918 0.0 100620
03:00−26sw1110028 0.0 100619
06:00−26s22991 0.0 100519
09:00−21sse23950 0.0 1004182
12:00−15se24900 0.0 1003344
15:00−14se359046 0.0 1002478
18:00−16ese3994100 0.0 1002288
21:00−17ese3895100 0.0 1001253